Tracking 23099 objects as of 13-May-2021
HD Live streaming from Space Station
objects crossing your sky now

STARLINK-1979

Track STARLINK-1979 now!
10-day predictions
STARLINK-1979 is classified as:


NORAD ID: 47577
Int'l Code: 2021-009AF
Perigee: 456.0 km
Apogee: 457.7 km
Inclination: 53.1 °
Period: 93.6 minutes
Semi major axis: 6827 km
RCS: Unknown
Launch date: February 4, 2021
Source: United States (US)
Launch site: AIR FORCE EASTERN TEST RANGE (AFETR)
aabbcc
Your satellite tracking list
Your tracking list is empty




NASA's NSSDC Master Catalog

Two Line Element Set (TLE):
1 47577U 21009AF  21132.91668981 -.00025003  00000-0 -63438-3 0  9998
2 47577  53.0550   7.1976 0001222  76.0444 172.9643 15.38781566  1768
Source of the keplerian elements: AFSPC